timestamp,wind_dir_avg,wind_spd_avg,wind_spd_max_dir,wind_spd_gust,battery_voltage,lat,long
2024-03-27 00:04:00+00:00,233.0,3.39,236.0,3.85,12.33,47.59359,-54.27349
2024-03-27 00:14:00+00:00,243.0,3.73,241.0,3.97,12.25,47.59359,-54.27349
2024-03-27 00:24:00+00:00,178.0,1.98,233.0,3.71,12.25,47.59359,-54.27349
2024-03-27 00:34:00+00:00,187.0,3.1,225.0,3.98,12.25,47.59359,-54.27349
2024-03-27 00:44:00+00:00,232.0,3.64,235.0,4.15,12.25,47.59359,-54.27349
2024-03-27 00:54:00+00:00,249.0,3.6,250.0,3.79,12.25,47.59359,-54.27349
2024-03-27 01:04:00+00:00,181.0,1.79,234.0,3.56,12.25,47.59359,-54.27349
2024-03-27 01:14:01+00:00,201.0,1.97,237.0,3.63,12.17,47.59359,-54.27349
2024-03-27 01:24:01+00:00,132.0,2.32,131.0,2.64,12.17,47.59359,-54.27349
2024-03-27 01:34:01+00:00,120.0,2.73,121.0,2.9,12.17,47.59359,-54.27349
2024-03-27 01:44:01+00:00,203.0,1.73,201.0,1.96,12.17,47.59359,-54.27349
2024-03-27 01:54:01+00:00,183.0,1.45,184.0,1.83,12.17,47.59359,-54.27349
2024-03-27 02:04:01+00:00,183.0,1.83,121.0,3.11,12.17,47.59359,-54.27349
2024-03-27 02:14:00+00:00,127.0,2.89,127.0,3.15,12.17,47.59359,-54.27349
2024-03-27 02:24:00+00:00,142.0,3.54,141.0,3.84,12.17,47.59359,-54.27349
2024-03-27 02:34:00+00:00,136.0,2.84,136.0,3.39,12.17,47.59359,-54.27349
2024-03-27 02:44:00+00:00,193.0,1.75,236.0,3.51,12.17,47.59359,-54.27349
2024-03-27 02:54:00+00:00,233.0,2.16,243.0,3.29,12.17,47.59359,-54.27349
2024-03-27 03:04:00+00:00,258.0,1.91,262.0,3.12,12.17,47.59359,-54.27349
2024-03-27 03:14:00+00:00,68.0,2.02,67.0,2.48,12.09,47.59359,-54.27349
2024-03-27 03:24:00+00:00,72.0,2.29,69.0,2.57,12.09,47.59359,-54.27349
2024-03-27 03:34:00+00:00,78.0,2.02,79.0,2.55,12.09,47.59359,-54.27349
2024-03-27 03:44:00+00:00,80.0,2.09,76.0,2.45,12.09,47.59359,-54.27349
2024-03-27 03:54:00+00:00,349.0,1.6,350.0,1.89,12.09,47.59359,-54.27349
2024-03-27 04:04:00+00:00,340.0,1.31,340.0,1.59,12.09,47.59359,-54.27349
2024-03-27 04:14:00+00:00,347.0,1.17,345.0,1.4,12.09,47.59359,-54.27349
2024-03-27 04:24:00+00:00,19.0,1.22,15.0,1.41,12.09,47.59359,-54.27349
2024-03-27 04:34:00+00:00,28.0,1.47,27.0,1.96,12.09,47.59359,-54.27349
2024-03-27 04:44:00+00:00,19.0,2.55,27.0,2.75,12.09,47.59359,-54.27349
2024-03-27 04:54:00+00:00,2.0,2.36,11.0,2.63,12.09,47.59359,-54.27349
2024-03-27 05:04:00+00:00,357.0,2.59,356.0,2.76,12.09,47.59359,-54.27349
2024-03-27 05:14:00+00:00,7.0,1.94,8.0,2.02,12.09,47.59359,-54.27349
2024-03-27 05:24:00+00:00,32.0,1.83,38.0,2.09,12.09,47.59359,-54.27349
2024-03-27 05:34:00+00:00,21.0,1.59,24.0,1.76,12.09,47.59359,-54.27349
2024-03-27 05:44:00+00:00,6.0,1.4,9.0,1.74,12.09,47.59359,-54.27349
2024-03-27 05:54:00+00:00,19.0,1.25,27.0,1.47,12.09,47.59359,-54.27349
2024-03-27 06:04:00+00:00,348.0,1.01,347.0,1.19,12.09,47.59359,-54.27349
2024-03-27 06:14:01+00:00,351.0,0.9,344.0,0.97,12.09,47.59359,-54.27349
2024-03-27 06:24:01+00:00,30.0,1.68,31.0,1.85,12.09,47.59359,-54.27349
2024-03-27 06:34:01+00:00,3.0,1.52,3.0,1.75,12.09,47.59359,-54.27349
2024-03-27 06:44:01+00:00,9.0,3.06,12.0,3.17,12.09,47.59359,-54.27349
2024-03-27 06:54:01+00:00,0.0,2.76,1.0,2.94,12.09,47.59359,-54.27349
2024-03-27 07:04:01+00:00,17.0,2.55,15.0,3.01,12.09,47.59359,-54.27349
2024-03-27 07:14:00+00:00,5.0,2.12,11.0,2.34,12.01,47.59359,-54.27349
2024-03-27 07:24:00+00:00,337.0,1.71,338.0,1.92,12.01,47.59359,-54.27349
2024-03-27 07:34:00+00:00,5.0,2.69,0.0,3.48,12.01,47.59359,-54.27349
2024-03-27 07:44:00+00:00,16.0,2.22,21.0,2.6,12.01,47.59359,-54.27349
2024-03-27 07:54:00+00:00,27.0,2.73,28.0,2.99,12.01,47.59359,-54.27349
2024-03-27 08:04:00+00:00,26.0,2.63,29.0,2.91,12.01,47.59359,-54.27349
2024-03-27 08:14:00+00:00,13.0,2.57,22.0,3.06,12.01,47.59359,-54.27349
2024-03-27 08:24:00+00:00,7.0,2.64,14.0,2.91,12.01,47.59359,-54.27349
2024-03-27 08:34:00+00:00,15.0,3.04,16.0,3.26,12.01,47.59359,-54.27349
2024-03-27 08:44:00+00:00,346.0,2.43,345.0,2.88,12.01,47.59359,-54.27349
2024-03-27 08:54:00+00:00,352.0,2.53,351.0,2.88,12.01,47.59359,-54.27349
2024-03-27 09:04:00+00:00,26.0,2.38,23.0,2.79,12.01,47.59359,-54.27349
2024-03-27 09:14:00+00:00,27.0,2.43,21.0,2.78,11.93,47.59359,-54.27349
2024-03-27 09:24:00+00:00,27.0,2.62,17.0,2.94,11.93,47.59359,-54.27349
2024-03-27 09:34:00+00:00,30.0,3.36,29.0,3.73,11.93,47.59359,-54.27349
2024-03-27 09:44:00+00:00,25.0,2.68,24.0,3.12,11.93,47.59359,-54.27349
2024-03-27 09:54:00+00:00,40.0,3.35,38.0,3.69,11.93,47.59359,-54.27349
2024-03-27 10:04:00+00:00,65.0,3.68,62.0,3.87,11.93,47.59359,-54.27349
2024-03-27 10:14:01+00:00,62.0,3.47,60.0,3.64,12.49,47.59359,-54.27349
2024-03-27 10:24:01+00:00,64.0,3.22,69.0,3.57,12.49,47.59359,-54.27349
2024-03-27 10:34:01+00:00,56.0,3.8,56.0,4.09,12.49,47.59359,-54.27349
2024-03-27 10:44:01+00:00,58.0,3.79,58.0,4.16,12.49,47.59359,-54.27349
2024-03-27 10:54:01+00:00,53.0,3.5,52.0,3.85,12.49,47.59359,-54.27349
2024-03-27 11:04:01+00:00,47.0,3.26,46.0,3.72,12.49,47.59359,-54.27349
2024-03-27 11:14:00+00:00,44.0,4.82,43.0,5.11,13.68,47.59359,-54.27349
2024-03-27 11:24:00+00:00,42.0,5.43,44.0,6.05,13.68,47.59359,-54.27349
2024-03-27 11:34:00+00:00,39.0,5.94,42.0,6.2,13.68,47.59359,-54.27349
2024-03-27 11:44:00+00:00,44.0,5.61,41.0,6.2,13.68,47.59359,-54.27349
2024-03-27 11:54:00+00:00,46.0,5.92,52.0,6.43,13.68,47.59359,-54.27349
2024-03-27 12:04:00+00:00,44.0,5.36,41.0,5.97,13.68,47.59359,-54.27349
2024-03-27 12:14:00+00:00,53.0,4.59,53.0,5.35,14.48,47.59359,-54.27349
2024-03-27 12:24:00+00:00,45.0,4.56,44.0,5.28,14.48,47.59359,-54.27349
2024-03-27 12:34:00+00:00,47.0,4.72,45.0,5.12,14.48,47.59359,-54.27349
2024-03-27 12:44:00+00:00,48.0,4.28,47.0,4.64,14.48,47.59359,-54.27349
2024-03-27 12:54:00+00:00,44.0,4.44,45.0,4.81,14.48,47.59359,-54.27349
2024-03-27 13:04:00+00:00,37.0,3.85,39.0,4.36,14.48,47.59359,-54.27349
2024-03-27 13:14:00+00:00,48.0,4.58,47.0,5.26,13.76,47.59359,-54.27349
2024-03-27 13:24:00+00:00,51.0,3.34,48.0,3.9,13.76,47.59359,-54.27349
2024-03-27 13:34:00+00:00,38.0,3.65,44.0,4.13,13.76,47.59359,-54.27349
2024-03-27 13:44:00+00:00,29.0,2.7,42.0,4.26,13.76,47.59359,-54.27349
2024-03-27 13:54:00+00:00,12.0,2.54,44.0,4.14,13.76,47.59359,-54.27349
2024-03-27 14:04:00+00:00,323.0,3.19,323.0,3.42,13.76,47.59359,-54.27349
2024-03-27 14:14:00+00:00,326.0,2.06,328.0,2.78,13.53,47.59359,-54.27349
2024-03-27 14:24:00+00:00,323.0,2.87,324.0,3.22,13.53,47.59359,-54.27349
2024-03-27 14:34:00+00:00,306.0,2.31,311.0,2.92,13.53,47.59359,-54.27349
2024-03-27 14:44:00+00:00,317.0,3.01,319.0,3.2,13.53,47.59359,-54.27349
2024-03-27 14:54:00+00:00,324.0,3.11,322.0,3.3,13.53,47.59359,-54.27349
2024-03-27 15:04:00+00:00,335.0,3.45,336.0,3.61,13.53,47.59359,-54.27349
2024-03-27 15:14:00+00:00,328.0,3.57,329.0,3.81,13.6,47.59359,-54.27349
2024-03-27 15:24:00+00:00,325.0,3.29,320.0,3.75,13.6,47.59359,-54.27349
2024-03-27 15:34:00+00:00,9.0,3.03,19.0,3.24,13.6,47.59359,-54.27349
2024-03-27 15:44:00+00:00,325.0,3.23,320.0,3.72,13.6,47.59359,-54.27349
2024-03-27 15:54:00+00:00,3.0,2.76,21.0,3.06,13.6,47.59359,-54.27349
2024-03-27 16:04:00+00:00,328.0,2.73,321.0,3.4,13.6,47.59359,-54.27349
2024-03-27 16:14:00+00:00,13.0,2.2,10.0,2.68,13.76,47.59359,-54.27349
2024-03-27 16:24:00+00:00,2.0,2.27,2.0,2.49,13.76,47.59359,-54.27349
2024-03-27 16:34:00+00:00,7.0,2.25,2.0,2.71,13.76,47.59359,-54.27349
2024-03-27 16:44:00+00:00,9.0,2.08,13.0,2.45,13.76,47.59359,-54.27349
2024-03-27 16:54:00+00:00,308.0,2.34,302.0,2.99,13.76,47.59359,-54.27349
2024-03-27 17:04:00+00:00,12.0,1.19,7.0,1.39,13.76,47.59359,-54.27349
2024-03-27 17:14:01+00:00,356.0,1.04,359.0,1.16,13.53,47.59359,-54.27349
2024-03-27 17:24:01+00:00,43.0,1.23,41.0,1.45,13.53,47.59359,-54.27349
2024-03-27 17:34:01+00:00,31.0,0.76,17.0,1.04,13.53,47.59359,-54.27349
2024-03-27 17:44:01+00:00,147.0,0.65,151.0,0.91,13.53,47.59359,-54.27349
2024-03-27 17:54:01+00:00,118.0,0.94,122.0,1.24,13.53,47.59359,-54.27349
2024-03-27 18:04:01+00:00,110.0,0.44,121.0,0.6,13.53,47.59359,-54.27349
2024-03-27 18:14:00+00:00,59.0,0.95,51.0,1.4,13.53,47.59359,-54.27349
2024-03-27 18:24:00+00:00,140.0,0.81,140.0,1.11,13.53,47.59359,-54.27349
2024-03-27 18:34:00+00:00,130.0,0.87,120.0,1.23,13.53,47.59359,-54.27349
2024-03-27 18:44:00+00:00,160.0,1.79,156.0,2.13,13.53,47.59359,-54.27349
2024-03-27 18:54:00+00:00,189.0,3.24,191.0,3.73,13.53,47.59359,-54.27349
2024-03-27 19:04:00+00:00,184.0,4.4,214.0,5.45,13.53,47.59359,-54.27349
2024-03-27 19:14:00+00:00,205.0,6.03,208.0,6.74,13.6,47.59359,-54.27349
2024-03-27 19:24:00+00:00,209.0,7.07,207.0,8.18,13.6,47.59359,-54.27349
2024-03-27 19:34:00+00:00,226.0,8.57,235.0,11.89,13.6,47.59359,-54.27349
2024-03-27 19:44:00+00:00,222.0,7.67,238.0,10.73,13.6,47.59359,-54.27349
2024-03-27 19:54:00+00:00,219.0,6.92,237.0,10.38,13.6,47.59359,-54.27349
2024-03-27 20:04:00+00:00,220.0,6.38,236.0,8.67,13.6,47.59359,-54.27349
2024-03-27 20:14:01+00:00,219.0,5.06,217.0,5.67,13.37,47.59359,-54.27349
2024-03-27 20:24:01+00:00,233.0,4.9,245.0,5.76,13.37,47.59359,-54.27349
2024-03-27 20:34:01+00:00,232.0,4.31,231.0,5.01,13.37,47.59359,-54.27349
2024-03-27 20:44:01+00:00,236.0,4.7,252.0,8.31,13.37,47.59359,-54.27349
2024-03-27 20:54:01+00:00,245.0,6.49,253.0,9.49,13.37,47.59359,-54.27349
2024-03-27 21:04:01+00:00,253.0,6.08,257.0,9.15,13.37,47.59359,-54.27349
2024-03-27 21:14:00+00:00,232.0,4.37,232.0,4.77,13.05,47.59359,-54.27349
2024-03-27 21:24:00+00:00,238.0,4.56,249.0,5.75,13.05,47.59359,-54.27349
2024-03-27 21:34:00+00:00,233.0,5.0,237.0,5.66,13.05,47.59359,-54.27349
2024-03-27 21:44:00+00:00,237.0,5.31,249.0,8.1,13.05,47.59359,-54.27349
2024-03-27 21:54:00+00:00,233.0,5.17,239.0,6.64,13.05,47.59359,-54.27349
2024-03-27 22:04:00+00:00,232.0,4.96,238.0,6.27,13.05,47.59359,-54.27349
2024-03-27 22:14:00+00:00,232.0,4.58,230.0,4.95,12.49,47.59359,-54.27349
2024-03-27 22:24:00+00:00,234.0,4.26,228.0,5.15,12.49,47.59359,-54.27349
2024-03-27 22:34:00+00:00,242.0,4.25,237.0,4.58,12.49,47.59359,-54.27349
2024-03-27 22:44:00+00:00,231.0,4.24,231.0,4.75,12.49,47.59359,-54.27349
2024-03-27 22:54:00+00:00,220.0,6.22,225.0,7.57,12.49,47.59359,-54.27349
2024-03-27 23:04:00+00:00,219.0,5.09,218.0,5.87,12.49,47.59359,-54.27349
2024-03-27 23:14:00+00:00,230.0,4.82,227.0,5.42,12.25,47.59359,-54.27349
2024-03-27 23:24:00+00:00,224.0,5.53,231.0,7.83,12.25,47.59359,-54.27349
2024-03-27 23:34:00+00:00,224.0,5.39,219.0,6.04,12.25,47.59359,-54.27349
2024-03-27 23:44:00+00:00,209.0,5.09,215.0,6.43,12.25,47.59359,-54.27349
2024-03-27 23:54:00+00:00,217.0,5.88,213.0,6.99,12.25,47.59359,-54.27349
